Regional Weather Roundup
Issued by NWS

Home | Current Version | Previous Version | Text Only | Print | Product List | Glossary Off
Versions: 1 2 3 4 5 6 7 8 9 10 11 12 13 14 15 16 17 18 19 20 21 22 23 24 25 26 27 28 29 30 31 32 33 34 35 36 37 38 39 40 41 42 43 44 45 46 47 48 49 50

000
ASUS45 KTFX 310610
RWRMT
MONTANA REGIONAL WEATHER ROUNDUP
NATIONAL WEATHER SERVICE GREAT FALLS MT
1200 AM MDT FRI JUL 31 2015

NOTE: "FAIR" INDICATES FEW OR NO CLOUDS BELOW 12000 FEET WITH NO
SIGNIFICANT WEATHER AND/OR OBSTRUCTIONS TO VISIBILITY.

MTZ001>007-043-310700-
WEST OF THE DIVIDE

CITY           SKY/WX    TMP DP  RH WIND       PRES   REMARKS
KALISPELL      CLEAR     57  39  51 NW3       30.15R
MISSOULA       CLEAR     64  42  44 CALM      30.19R
BUTTE          CLEAR     56  41  57 SE7       30.35R
MULLAN PASS    CLEAR     68  27  21 N3        30.36S
DEER LODGE       N/A     55  41  58 CALM      30.32S
EUREKA           N/A     64  37  36 S3        30.14S
HAMILTON         N/A     64  43  45 S5        30.22R
LIBBY            N/A     64  37  36 CALM      30.15S
PLAINS           N/A     63  37  37 CALM      30.15R
RONAN            N/A     59  46  61 CALM      30.19F
$$

MTZ008-052>055-310700-
SOUTHWEST MONTANA

CITY           SKY/WX    TMP DP  RH WIND       PRES   REMARKS
BOZEMAN        CLEAR     60  46  59 SE5       30.26R
DILLON         CLEAR     59  43  55 SW12      30.30R
W YELLOWSTONE  CLEAR     46  39  76 CALM      30.44S
THREE FORKS      N/A     58  58 100 CALM      30.22R
TWIN BRIDGES     N/A     62  44  51 CALM      30.24R
$$

MTZ009-010-012-014-046-048-049-054-310700-
EAST SLOPES AND CENTRAL MONTANA

CITY           SKY/WX    TMP DP  RH WIND       PRES   REMARKS
CUT BANK       CLEAR     67  39  35 SE9       30.20R
GREAT FALLS    CLEAR     64  42  44 E6        30.17S
MALMSTROM AFB  CLEAR     64  44  49 SE9       30.17S
HELENA         CLEAR     67  40  37 SW5       30.23R
CONRAD           N/A     58  48  69 NE6       30.20S
$$

MTZ011-013-016-021-045-047-050-051-310700-
NORTH CENTRAL MONTANA

CITY           SKY/WX    TMP DP  RH WIND       PRES   REMARKS
HAVRE          CLEAR     66  52  60 NE6       30.14S
LEWISTOWN      CLEAR     60  45  57 SE9       30.25F
CHINOOK          N/A     66  52  59 E7        30.15S
$$

MTZ017>020-022>027-061-062-310700-
NORTHEAST MONTANA

CITY           SKY/WX    TMP DP  RH WIND       PRES   REMARKS
GLASGOW        CLEAR     63  50  62 NE8       30.15R
JORDAN           N/A     59  46  62 CALM      30.18S
SIDNEY         CLEAR     59  48  67 CALM      30.16R
WOLF POINT     CLEAR     59  48  67 CALM      30.15S
MALTA            N/A     66  53  63 CALM      30.13R
PLENTYWOOD       N/A     63  52  67 CALM      30.16R
POPLAR           N/A     61  54  77 N6        30.16R
SCOBEY           N/A     57  50  78 N3        30.15S
$$

MTZ028>42-056>058-310700-
SOUTHCENTRAL AND SOUTHEAST MONTANA

CITY           SKY/WX    TMP DP  RH WIND       PRES   REMARKS
BAKER          CLEAR     61  45  55 CALM      30.23S
BILLINGS       CLEAR     71  41  33 N9        30.24S
LIVINGSTON     CLEAR     58  41  53 W3        30.28S
MILES CITY     CLEAR     70  46  42 SE5       30.19S
EKALAKA          N/A     69  39  33 SE5       30.21S
FORSYTH          N/A     68  45  42 CALM      30.20S
LAUREL           N/A     71  38  30 N3        30.20R
ROUNDUP          N/A     69  34  27 CALM      30.13S
$$

REGIONAL REPORTS...DAKOTAS

CITY           SKY/WX    TMP DP  RH WIND       PRES   REMARKS
WILLISTON      CLEAR     57  50  77 N3        30.16S
MINOT          CLEAR     59  49  69 SW8       30.12S
DICKINSON      CLEAR     57  47  69 SE3       30.20R
BEACH          FAIR      52  50  93 SE5       30.22R
CROSBY         FAIR      54  54 100 SW8       30.15S
BISMARCK       CLEAR     62  53  72 CALM      30.16R
GRAND FORKS    CLEAR     58  52  80 W8        30.01F
FARGO          CLEAR     60  54  80 W9        30.05S
BUFFALO SD       N/A     63  48  58 CALM      30.17R
RAPID CITY     CLEAR     64  51  62 N7        30.22R
$$

REGIONAL REPORTS...WYOMING/IDAHO/WASHINGTON

CITY           SKY/WX    TMP DP  RH WIND       PRES   REMARKS
GILLETTE       CLEAR     56  40  55 S3        30.29R
SHERIDAN       CLEAR     59  46  62 SE3       30.26S
BUFFALO WY     CLEAR     63  40  42 W7        30.34S
CODY           CLEAR     63  36  36 SW7       30.32S
YELLOWSTONE LA   N/A     47  35  63 CALM      30.54R
IDAHO FALLS    CLEAR     54  47  77 N3        30.28F
SALMON         CLEAR     61  46  59 CALM      30.22R
BOISE          CLEAR     74  35  24 E3        30.11F
SPOKANE        CLEAR     77  32  19 CALM      30.09S
$$

REGIONAL REPORTS...ALBERTA

CITY           SKY/WX    TMP DP  RH WIND       PRES   REMARKS
EDMONTON       PTCLDY    55  48  76 S2        30.13S
CALGARY        PTCLDY    63  45  51 VRB2      30.21R
LETHBRIDGE     CLEAR     59  48  67 S12       30.14S
MEDICINE HAT   CLEAR     64  43  45 NE6       30.13S
CARDSTON         N/A     63  37  39 SW8         N/A
MILK RIVER       N/A     54  48  82 N2          N/A
$$

REGIONAL REPORTS...SASKATCHEWAN

CITY           SKY/WX    TMP DP  RH WIND       PRES   REMARKS
SWIFT CURRENT  CLEAR     63  50  63 E5        30.17R
REGINA         CLEAR     54  52  94 W5        30.13R
SASKATOON      CLEAR     55  46  71 NW9       30.12S
CYPRESS HILLS    N/A     61  36  39 E5          N/A
VAL MARIE        N/A     54  50  87 NE2         N/A
ROCKGLEN         N/A     57  52  82 S6          N/A
ASSINIBOIA       N/A     52  48  87 S5          N/A
$$



USA.gov is the U.S. government's official web portal to all federal, state and local government web resources and services.